Location: Lalanga
(4.5882°N, 32.9072°E)
Time: 15:36:39
(UTC+00:00)

Intelsat 5-2 Rocket - Pass Details

Date: 24 January 2020
Orbit: 329 x 10154 km, 23.6° (Epoch: 23 February)

Event Time Altitude Azimuth Distance (km) Brightness Sun altitude
Rises 16:12:02 0° 276° (W) 2,066 7.1 -4.3°
Reaches altitude 10° 16:13:59 10° 298° (WNW) 1,315 5.4 -4.7°
Maximum altitude 16:16:00 19° 351° (N) 1,083 4.3 -5.2°
Drops below altitude 10° 16:19:03 10° 40° (NE) 2,057 5.2 -5.9°
Enters shadow 16:20:56 - 49° (NE) 2,881 5.9 -6.4°
